Location: Bothwell
(42.3833°S, 147.0000°E)
Time: 20:24:04
(UTC+11:00)

CUBESAT XI-V - Pass Details

Date: 27 September 2022
Orbit: 666 x 689 km, 98.1° (Epoch: 25 November)

Event Time Altitude Azimuth Distance (km) Brightness Sun altitude
Rises 02:47:51 0° 167° (SSE) 3,084 ? -32.6°
Reaches altitude 10° 02:50:07 10° 166° (SSE) 2,164 ? -32.3°
Enters shadow 02:52:46 34° 163° (SSE) 1,153 ? -31.9°
